Time,TemperatureF,DewpointF,PressureIn,WindDirection,WindDirectionDegrees,WindSpeedMPH,WindSpeedGustMPH,Humidity,HourlyPrecipIn,Conditions,Clouds,dailyrainin,SoftwareType,DateUTC
2013-08-26 00:06:00,61.0,59.0,30.21,NNE,25,0.0,-999.0,92,-99.99,,,0.00,weatherlink.com 1.10,2013-08-26 04:06:00,
2013-08-26 00:21:00,60.9,59.0,30.21,NNE,25,0.0,-999.0,93,-99.99,,,0.00,weatherlink.com 1.10,2013-08-26 04:21:00,
2013-08-26 00:36:00,60.5,59.0,30.21,NNE,25,0.0,-999.0,93,-99.99,,,0.00,weatherlink.com 1.10,2013-08-26 04:36:00,
2013-08-26 00:51:00,60.2,58.0,30.21,NNE,25,0.0,-999.0,93,-99.99,,,0.00,weatherlink.com 1.10,2013-08-26 04:51:00,
2013-08-26 01:06:00,59.9,58.0,30.21,NNE,25,0.0,-999.0,93,-99.99,,,0.00,weatherlink.com 1.10,2013-08-26 05:06:00,
2013-08-26 01:21:00,59.6,58.0,30.21,NNE,25,0.0,-999.0,94,-99.99,,,0.00,weatherlink.com 1.10,2013-08-26 05:21:00,
2013-08-26 01:36:00,59.5,58.0,30.21,NNE,25,0.0,-999.0,94,-99.99,,,0.00,weatherlink.com 1.10,2013-08-26 05:36:00,
2013-08-26 01:51:00,59.3,58.0,30.20,NNE,25,0.0,-999.0,94,-99.99,,,0.00,weatherlink.com 1.10,2013-08-26 05:51:00,
2013-08-26 02:06:00,58.9,57.0,30.20,NNE,25,0.0,-999.0,94,-99.99,,,0.00,weatherlink.com 1.10,2013-08-26 06:06:00,
2013-08-26 02:21:00,58.7,57.0,30.20,NNE,25,0.0,-999.0,95,-99.99,,,0.00,weatherlink.com 1.10,2013-08-26 06:21:00,
2013-08-26 02:36:00,58.4,57.0,30.19,NNE,25,0.0,-999.0,95,-99.99,,,0.00,weatherlink.com 1.10,2013-08-26 06:36:00,
2013-08-26 02:51:00,58.1,57.0,30.19,NNE,25,0.0,-999.0,95,-99.99,,,0.00,weatherlink.com 1.10,2013-08-26 06:51:00,
2013-08-26 03:06:00,57.8,56.0,30.19,NNE,25,0.0,-999.0,95,-99.99,,,0.00,weatherlink.com 1.10,2013-08-26 07:06:00,
2013-08-26 03:21:00,57.5,56.0,30.18,NNE,25,0.0,-999.0,95,-99.99,,,0.00,weatherlink.com 1.10,2013-08-26 07:21:00,
2013-08-26 03:36:00,57.3,56.0,30.18,NNE,25,0.0,-999.0,95,-99.99,,,0.00,weatherlink.com 1.10,2013-08-26 07:36:00,
2013-08-26 03:52:00,57.2,56.0,30.18,NNE,25,0.0,-999.0,95,-99.99,,,0.00,weatherlink.com 1.10,2013-08-26 07:52:00,
2013-08-26 04:07:00,56.9,56.0,30.17,NNE,25,0.0,-999.0,95,-99.99,,,0.00,weatherlink.com 1.10,2013-08-26 08:07:00,
2013-08-26 04:22:00,56.9,56.0,30.17,NNE,25,0.0,-999.0,96,-99.99,,,0.00,weatherlink.com 1.10,2013-08-26 08:22:00,
2013-08-26 04:37:00,56.7,56.0,30.17,NNE,25,0.0,-999.0,96,-99.99,,,0.00,weatherlink.com 1.10,2013-08-26 08:37:00,
2013-08-26 04:52:00,56.5,55.0,30.17,NNE,25,0.0,-999.0,96,-99.99,,,0.00,weatherlink.com 1.10,2013-08-26 08:52:00,
2013-08-26 05:07:00,56.3,55.0,30.16,NNE,25,0.0,-999.0,96,-99.99,,,0.00,weatherlink.com 1.10,2013-08-26 09:07:00,
2013-08-26 05:22:00,56.2,55.0,30.17,NNE,25,0.0,-999.0,96,-99.99,,,0.00,weatherlink.com 1.10,2013-08-26 09:22:00,
2013-08-26 05:37:00,55.9,55.0,30.17,NNE,25,0.0,-999.0,96,-99.99,,,0.00,weatherlink.com 1.10,2013-08-26 09:37:00,
2013-08-26 05:52:00,55.7,55.0,30.16,NNE,25,0.0,-999.0,96,-99.99,,,0.00,weatherlink.com 1.10,2013-08-26 09:52:00,
2013-08-26 06:07:00,55.6,55.0,30.16,NNE,25,0.0,-999.0,96,-99.99,,,0.00,weatherlink.com 1.10,2013-08-26 10:07:00,
2013-08-26 06:22:00,55.4,54.0,30.17,NNE,25,0.0,-999.0,96,-99.99,,,0.00,weatherlink.com 1.10,2013-08-26 10:22:00,
2013-08-26 06:37:00,55.1,54.0,30.16,NNE,25,0.0,-999.0,96,-99.99,,,0.00,weatherlink.com 1.10,2013-08-26 10:37:00,
2013-08-26 06:52:00,55.1,54.0,30.16,NNE,25,0.0,-999.0,96,-99.99,,,0.00,weatherlink.com 1.10,2013-08-26 10:52:00,
2013-08-26 07:07:00,55.1,54.0,30.17,NNE,25,0.0,-999.0,97,-99.99,,,0.00,weatherlink.com 1.10,2013-08-26 11:07:00,
2013-08-26 07:22:00,55.3,55.0,30.17,NNE,25,0.0,-999.0,97,-99.99,,,0.00,weatherlink.com 1.10,2013-08-26 11:22:00,
2013-08-26 07:37:00,56.0,55.0,30.17,NNE,25,0.0,-999.0,97,-99.99,,,0.00,weatherlink.com 1.10,2013-08-26 11:37:00,
2013-08-26 07:52:00,57.2,57.0,30.17,NNE,25,0.0,-999.0,98,-99.99,,,0.00,weatherlink.com 1.10,2013-08-26 11:52:00,
2013-08-26 08:07:00,58.6,58.0,30.18,NNE,25,0.0,-999.0,98,-99.99,,,0.00,weatherlink.com 1.10,2013-08-26 12:07:00,
2013-08-26 08:22:00,59.5,59.0,30.18,NNE,25,0.0,-999.0,98,-99.99,,,0.00,weatherlink.com 1.10,2013-08-26 12:22:00,
2013-08-26 08:37:00,61.8,61.0,30.18,NNE,32,0.0,-999.0,98,-99.99,,,0.00,weatherlink.com 1.10,2013-08-26 12:37:00,
2013-08-26 08:52:00,63.9,63.0,30.18,NNE,32,0.0,-999.0,98,-99.99,,,0.00,weatherlink.com 1.10,2013-08-26 12:52:00,
2013-08-26 09:07:00,65.0,64.0,30.18,NNE,32,0.0,-999.0,95,-99.99,,,0.00,weatherlink.com 1.10,2013-08-26 13:07:00,
2013-08-26 09:22:00,67.1,64.0,30.18,NNE,32,0.0,-999.0,90,-99.99,,,0.00,weatherlink.com 1.10,2013-08-26 13:22:00,
2013-08-26 09:37:00,67.6,63.0,30.18,NNE,32,0.0,-999.0,86,-99.99,,,0.00,weatherlink.com 1.10,2013-08-26 13:37:00,
2013-08-26 09:52:00,68.8,64.0,30.18,NNE,32,0.0,-999.0,84,-99.99,,,0.00,weatherlink.com 1.10,2013-08-26 13:52:00,
2013-08-26 10:07:00,69.8,64.0,30.18,NNE,32,0.0,-999.0,81,-99.99,,,0.00,weatherlink.com 1.10,2013-08-26 14:07:00,
2013-08-26 10:22:00,71.1,64.0,30.18,NNE,28,0.0,-999.0,77,-99.99,,,0.00,weatherlink.com 1.10,2013-08-26 14:22:00,
2013-08-26 10:37:00,72.8,64.0,30.18,NNE,28,0.0,-999.0,73,-99.99,,,0.00,weatherlink.com 1.10,2013-08-26 14:37:00,
2013-08-26 10:52:00,72.3,64.0,30.18,NNE,28,0.0,-999.0,74,-99.99,,,0.00,weatherlink.com 1.10,2013-08-26 14:52:00,
2013-08-26 11:07:00,73.0,62.0,30.18,SSW,209,0.0,-999.0,68,-99.99,,,0.00,weatherlink.com 1.10,2013-08-26 15:07:00,
2013-08-26 11:22:00,75.1,63.0,30.17,SSW,202,0.0,-999.0,66,-99.99,,,0.00,weatherlink.com 1.10,2013-08-26 15:22:00,
2013-08-26 11:37:00,76.1,62.0,30.17,SE,144,0.0,-999.0,62,-99.99,,,0.00,weatherlink.com 1.10,2013-08-26 15:37:00,
2013-08-26 11:52:00,76.8,63.0,30.16,SE,144,0.0,-999.0,63,-99.99,,,0.00,weatherlink.com 1.10,2013-08-26 15:52:00,
2013-08-26 12:07:00,77.2,63.0,30.16,South,175,0.0,-999.0,61,-99.99,,,0.00,weatherlink.com 1.10,2013-08-26 16:07:00,
2013-08-26 12:22:00,78.1,61.0,30.15,NE,47,0.0,-999.0,56,-99.99,,,0.00,weatherlink.com 1.10,2013-08-26 16:22:00,
2013-08-26 12:37:00,78.5,62.0,30.14,ENE,66,0.0,-999.0,57,-99.99,,,0.00,weatherlink.com 1.10,2013-08-26 16:37:00,
2013-08-26 12:52:00,78.1,61.0,30.14,ENE,66,0.0,-999.0,56,-99.99,,,0.00,weatherlink.com 1.10,2013-08-26 16:52:00,
2013-08-26 13:08:00,79.0,60.0,30.13,NNE,32,0.0,-999.0,52,-99.99,,,0.00,weatherlink.com 1.10,2013-08-26 17:08:00,
2013-08-26 13:23:00,79.2,61.0,30.12,ENE,59,0.0,-999.0,54,-99.99,,,0.00,weatherlink.com 1.10,2013-08-26 17:23:00,
2013-08-26 13:38:00,78.8,61.0,30.12,South,178,0.0,-999.0,54,-99.99,,,0.00,weatherlink.com 1.10,2013-08-26 17:38:00,
2013-08-26 13:53:00,79.6,61.0,30.12,South,178,0.0,-999.0,54,-99.99,,,0.00,weatherlink.com 1.10,2013-08-26 17:53:00,
2013-08-26 14:08:00,80.3,56.0,30.11,South,179,0.0,-999.0,43,-99.99,,,0.00,weatherlink.com 1.10,2013-08-26 18:08:00,
2013-08-26 14:23:00,80.5,59.0,30.11,SSE,165,0.0,-999.0,48,-99.99,,,0.00,weatherlink.com 1.10,2013-08-26 18:23:00,
2013-08-26 14:38:00,81.6,59.0,30.10,SSE,167,0.0,-999.0,46,-99.99,,,0.00,weatherlink.com 1.10,2013-08-26 18:38:00,
2013-08-26 14:53:00,81.8,55.0,30.09,South,184,0.0,-999.0,40,-99.99,,,0.00,weatherlink.com 1.10,2013-08-26 18:53:00,
2013-08-26 15:08:00,83.0,56.0,30.08,ESE,120,0.0,-999.0,39,-99.99,,,0.00,weatherlink.com 1.10,2013-08-26 19:08:00,
2013-08-26 15:23:00,83.0,58.0,30.07,ESE,120,0.0,-999.0,42,-99.99,,,0.00,weatherlink.com 1.10,2013-08-26 19:23:00,
2013-08-26 15:38:00,82.8,57.0,30.07,ESE,120,0.0,-999.0,41,-99.99,,,0.00,weatherlink.com 1.10,2013-08-26 19:38:00,
2013-08-26 15:53:00,84.0,55.0,30.06,ESE,121,1.0,-999.0,37,-99.99,,,0.00,weatherlink.com 1.10,2013-08-26 19:53:00,
2013-08-26 16:08:00,84.5,61.0,30.05,ESE,123,0.0,-999.0,45,-99.99,,,0.00,weatherlink.com 1.10,2013-08-26 20:08:00,
2013-08-26 16:23:00,83.6,55.0,30.04,SE,143,0.0,-999.0,38,-99.99,,,0.00,weatherlink.com 1.10,2013-08-26 20:23:00,
2013-08-26 16:38:00,84.9,56.0,30.03,SE,143,0.0,-999.0,37,-99.99,,,0.00,weatherlink.com 1.10,2013-08-26 20:38:00,
2013-08-26 16:53:00,85.3,56.0,30.03,SE,143,0.0,-999.0,37,-99.99,,,0.00,weatherlink.com 1.10,2013-08-26 20:53:00,
2013-08-26 17:08:00,84.9,61.0,30.03,SE,143,0.0,-999.0,45,-99.99,,,0.00,weatherlink.com 1.10,2013-08-26 21:08:00,
2013-08-26 17:23:00,85.5,62.0,30.02,SE,143,0.0,-999.0,46,-99.99,,,0.00,weatherlink.com 1.10,2013-08-26 21:23:00,
2013-08-26 17:38:00,85.7,58.0,30.02,SE,143,0.0,-999.0,39,-99.99,,,0.00,weatherlink.com 1.10,2013-08-26 21:38:00,
2013-08-26 17:53:00,86.1,63.0,30.02,SE,143,0.0,-999.0,46,-99.99,,,0.00,weatherlink.com 1.10,2013-08-26 21:53:00,
2013-08-26 18:08:00,86.1,64.0,30.02,SE,143,0.0,-999.0,48,-99.99,,,0.00,weatherlink.com 1.10,2013-08-26 22:08:00,
2013-08-26 18:23:00,85.3,63.0,30.02,SE,143,0.0,-999.0,48,-99.99,,,0.00,weatherlink.com 1.10,2013-08-26 22:23:00,
2013-08-26 18:38:00,84.5,64.0,30.02,SE,143,0.0,-999.0,50,-99.99,,,0.00,weatherlink.com 1.10,2013-08-26 22:38:00,
2013-08-26 18:53:00,83.6,66.0,30.01,SE,143,0.0,-999.0,56,-99.99,,,0.00,weatherlink.com 1.10,2013-08-26 22:53:00,
2013-08-26 19:08:00,81.1,67.0,30.00,SE,143,0.0,-999.0,63,-99.99,,,0.00,weatherlink.com 1.10,2013-08-26 23:08:00,
2013-08-26 19:23:00,78.6,67.0,30.00,SE,143,0.0,-999.0,68,-99.99,,,0.00,weatherlink.com 1.10,2013-08-26 23:23:00,
2013-08-26 19:38:00,76.7,67.0,30.00,SE,143,0.0,-999.0,73,-99.99,,,0.00,weatherlink.com 1.10,2013-08-26 23:38:00,
2013-08-26 19:53:00,74.7,66.0,30.00,SE,143,0.0,-999.0,75,-99.99,,,0.00,weatherlink.com 1.10,2013-08-26 23:53:00,
2013-08-26 20:08:00,72.8,66.0,30.00,SE,143,0.0,-999.0,78,-99.99,,,0.00,weatherlink.com 1.10,2013-08-27 00:08:00,
2013-08-26 20:23:00,71.1,65.0,30.00,SE,143,0.0,-999.0,81,-99.99,,,0.00,weatherlink.com 1.10,2013-08-27 00:23:00,
2013-08-26 20:38:00,69.9,65.0,30.00,SE,143,0.0,-999.0,83,-99.99,,,0.00,weatherlink.com 1.10,2013-08-27 00:38:00,
2013-08-26 20:53:00,69.1,64.0,30.01,SE,143,0.0,-999.0,84,-99.99,,,0.00,weatherlink.com 1.10,2013-08-27 00:53:00,
2013-08-26 21:08:00,68.3,63.0,30.01,SE,143,0.0,-999.0,84,-99.99,,,0.00,weatherlink.com 1.10,2013-08-27 01:08:00,
2013-08-26 21:23:00,67.8,64.0,30.00,SE,143,0.0,-999.0,86,-99.99,,,0.00,weatherlink.com 1.10,2013-08-27 01:23:00,
2013-08-26 21:38:00,67.1,63.0,30.01,SE,143,0.0,-999.0,86,-99.99,,,0.00,weatherlink.com 1.10,2013-08-27 01:38:00,
2013-08-26 21:53:00,66.4,63.0,30.00,SE,143,0.0,-999.0,87,-99.99,,,0.00,weatherlink.com 1.10,2013-08-27 01:53:00,
2013-08-26 22:08:00,65.8,62.0,30.01,SE,143,0.0,-999.0,88,-99.99,,,0.00,weatherlink.com 1.10,2013-08-27 02:08:00,
2013-08-26 22:23:00,65.5,63.0,30.00,SE,143,0.0,-999.0,90,-99.99,,,0.00,weatherlink.com 1.10,2013-08-27 02:23:00,
2013-08-26 22:38:00,65.2,62.0,30.00,SE,143,0.0,-999.0,90,-99.99,,,0.00,weatherlink.com 1.10,2013-08-27 02:38:00,
2013-08-26 22:53:00,65.0,63.0,30.00,SE,143,0.0,-999.0,92,-99.99,,,0.00,weatherlink.com 1.10,2013-08-27 02:53:00,
2013-08-26 23:08:00,64.7,62.0,30.01,SE,143,0.0,-999.0,91,-99.99,,,0.00,weatherlink.com 1.10,2013-08-27 03:08:00,
2013-08-26 23:23:00,64.2,62.0,30.01,SE,143,0.0,-999.0,91,-99.99,,,0.00,weatherlink.com 1.10,2013-08-27 03:23:00,
2013-08-26 23:38:00,63.9,62.0,30.01,SE,143,0.0,-999.0,92,-99.99,,,0.00,weatherlink.com 1.10,2013-08-27 03:38:00,
2013-08-26 23:53:00,63.5,61.0,30.01,SE,143,0.0,-999.0,92,-99.99,,,0.00,weatherlink.com 1.10,2013-08-27 03:53:00,